Time,TemperatureF,DewpointF,PressureIn,WindDirection,WindDirectionDegrees,WindSpeedMPH,WindSpeedGustMPH,Humidity,HourlyPrecipIn,Conditions,Clouds,dailyrainin,SoftwareType,DateUTC
2013-06-11 00:01:00,77.7,26.4,25.31,WNW,288,4.9,5.4,15,0.00,,---,0.00,VWS V14.00,2013-06-11 07:01:00,
2013-06-11 00:06:00,77.7,26.4,25.31,WNW,288,5.4,5.4,15,0.00,,---,0.00,VWS V14.00,2013-06-11 07:06:00,
2013-06-11 00:11:00,77.5,26.3,25.31,WNW,288,2.7,3.6,15,0.00,,---,0.00,VWS V14.00,2013-06-11 07:11:00,
2013-06-11 00:16:00,77.0,25.9,25.31,WNW,288,0.0,0.0,15,0.00,,---,0.00,VWS V14.00,2013-06-11 07:16:00,
2013-06-11 00:21:00,76.5,25.4,25.31,WNW,300,2.7,4.9,15,0.00,,---,0.00,VWS V14.00,2013-06-11 07:21:00,
2013-06-11 00:26:00,76.1,25.1,25.31,NW,304,5.8,5.8,15,0.00,,---,0.00,VWS V14.00,2013-06-11 07:26:00,
2013-06-11 00:32:00,76.5,25.4,25.31,NW,307,6.3,6.3,15,0.00,,---,0.00,VWS V14.00,2013-06-11 07:32:00,
2013-06-11 00:37:00,77.4,26.1,25.31,NW,317,8.1,8.1,15,0.00,,---,0.00,VWS V14.00,2013-06-11 07:37:00,
2013-06-11 00:42:00,77.9,26.6,25.31,WNW,287,6.3,7.6,15,0.00,,---,0.00,VWS V14.00,2013-06-11 07:42:00,
2013-06-11 00:47:00,77.9,26.6,25.28,WNW,297,8.3,8.3,15,0.00,,---,0.00,VWS V14.00,2013-06-11 07:47:00,
2013-06-11 00:52:00,77.9,26.6,25.28,WSW,258,8.7,10.5,15,0.00,,---,0.00,VWS V14.00,2013-06-11 07:52:00,
2013-06-11 00:57:00,78.3,26.9,25.28,WNW,284,8.1,8.3,15,0.00,,---,0.00,VWS V14.00,2013-06-11 07:57:00,
2013-06-11 01:02:00,78.6,27.1,25.28,WSW,249,6.3,6.3,15,0.00,,---,0.00,VWS V14.00,2013-06-11 08:02:00,
2013-06-11 01:07:00,79.2,27.6,25.28,WNW,290,5.8,13.2,15,0.00,,---,0.00,VWS V14.00,2013-06-11 08:07:00,
2013-06-11 01:12:00,79.7,28.0,25.28,West,281,7.6,7.6,15,0.00,,---,0.00,VWS V14.00,2013-06-11 08:12:00,
2013-06-11 01:17:00,79.3,27.7,25.28,West,280,10.1,10.1,15,0.00,,---,0.00,VWS V14.00,2013-06-11 08:17:00,
2013-06-11 01:22:00,79.5,27.9,25.28,West,274,13.2,13.2,15,0.00,,---,0.00,VWS V14.00,2013-06-11 08:22:00,
2013-06-11 01:27:00,80.1,28.3,25.28,WNW,290,7.2,7.6,15,0.00,,---,0.00,VWS V14.00,2013-06-11 08:27:00,
2013-06-11 01:32:00,80.1,28.3,25.28,West,277,8.7,8.7,15,0.00,,---,0.00,VWS V14.00,2013-06-11 08:32:00,
2013-06-11 01:37:00,79.9,28.1,25.28,West,279,8.7,9.6,15,0.00,,---,0.00,VWS V14.00,2013-06-11 08:37:00,
2013-06-11 01:42:00,79.5,27.9,25.28,WNW,302,6.3,7.6,15,0.00,,---,0.00,VWS V14.00,2013-06-11 08:42:00,
2013-06-11 01:47:00,79.7,28.0,25.28,WNW,290,6.7,6.7,15,0.00,,---,0.00,VWS V14.00,2013-06-11 08:47:00,
2013-06-11 01:52:00,79.5,27.9,25.28,WNW,284,6.3,8.3,15,0.00,,---,0.00,VWS V14.00,2013-06-11 08:52:00,
2013-06-11 01:57:00,79.7,28.0,25.28,West,274,6.3,8.1,15,0.00,,---,0.00,VWS V14.00,2013-06-11 08:57:00,
2013-06-11 02:02:00,79.9,28.1,25.28,WNW,286,10.1,10.1,15,0.00,,---,0.00,VWS V14.00,2013-06-11 09:02:00,
2013-06-11 02:07:00,80.2,28.4,25.28,WNW,289,5.8,8.3,15,0.00,,---,0.00,VWS V14.00,2013-06-11 09:07:00,
2013-06-11 02:13:00,80.2,28.4,25.28,WNW,298,10.5,10.5,15,0.00,,---,0.00,VWS V14.00,2013-06-11 09:13:00,
2013-06-11 02:18:00,80.1,28.3,25.28,West,278,8.1,8.1,15,0.00,,---,0.00,VWS V14.00,2013-06-11 09:18:00,
2013-06-11 02:23:00,79.9,28.1,25.28,West,275,8.1,8.1,15,0.00,,---,0.00,VWS V14.00,2013-06-11 09:23:00,
2013-06-11 02:28:00,79.9,28.1,25.31,WNW,292,5.4,8.7,15,0.00,,---,0.00,VWS V14.00,2013-06-11 09:28:00,
2013-06-11 02:33:00,79.5,27.9,25.31,West,279,5.4,5.8,15,0.00,,---,0.00,VWS V14.00,2013-06-11 09:33:00,
2013-06-11 02:38:00,79.2,27.6,25.31,WNW,288,5.8,8.1,15,0.00,,---,0.00,VWS V14.00,2013-06-11 09:38:00,
2013-06-11 02:43:00,78.6,27.1,25.28,WNW,289,5.4,5.8,15,0.00,,---,0.00,VWS V14.00,2013-06-11 09:43:00,
2013-06-11 02:48:00,77.9,26.6,25.28,West,278,6.3,7.2,15,0.00,,---,0.00,VWS V14.00,2013-06-11 09:48:00,
2013-06-11 02:53:00,77.7,26.4,25.28,WNW,286,5.4,8.1,15,0.00,,---,0.00,VWS V14.00,2013-06-11 09:53:00,
2013-06-11 02:58:00,77.7,26.4,25.28,West,260,5.8,5.8,15,0.00,,---,0.00,VWS V14.00,2013-06-11 09:58:00,
2013-06-11 03:03:00,77.9,26.6,25.28,West,267,7.6,7.6,15,0.00,,---,0.00,VWS V14.00,2013-06-11 10:03:00,
2013-06-11 03:08:00,77.9,26.6,25.28,West,279,7.6,7.6,15,0.00,,---,0.00,VWS V14.00,2013-06-11 10:08:00,
2013-06-11 03:13:00,78.3,26.9,25.28,West,280,8.3,8.7,15,0.00,,---,0.00,VWS V14.00,2013-06-11 10:13:00,
2013-06-11 03:18:00,78.8,27.3,25.28,WSW,251,2.7,4.9,15,0.00,,---,0.00,VWS V14.00,2013-06-11 10:18:00,
2013-06-11 03:23:00,78.8,27.3,25.28,WSW,249,4.0,4.0,15,0.00,,---,0.00,VWS V14.00,2013-06-11 10:23:00,
2013-06-11 03:28:00,78.3,26.9,25.31,West,274,2.7,4.9,15,0.00,,---,0.00,VWS V14.00,2013-06-11 10:28:00,
2013-06-11 03:33:00,77.4,26.1,25.31,West,270,5.4,5.4,15,0.00,,---,0.00,VWS V14.00,2013-06-11 10:33:00,
2013-06-11 03:38:00,77.0,25.9,25.31,West,276,5.8,5.8,15,0.00,,---,0.00,VWS V14.00,2013-06-11 10:38:00,
2013-06-11 03:43:00,77.2,26.0,25.31,WSW,257,5.4,5.8,15,0.00,,---,0.00,VWS V14.00,2013-06-11 10:43:00,
2013-06-11 03:48:00,76.8,25.7,25.31,WSW,251,2.2,3.1,15,0.00,,---,0.00,VWS V14.00,2013-06-11 10:48:00,
2013-06-11 03:53:00,75.7,24.9,25.31,WSW,239,0.0,0.0,15,0.00,,---,0.00,VWS V14.00,2013-06-11 10:53:00,
2013-06-11 03:58:00,75.0,25.8,25.31,SW,217,3.1,3.6,16,0.00,,---,0.00,VWS V14.00,2013-06-11 10:58:00,
2013-06-11 04:03:00,75.0,25.8,25.31,SW,230,0.0,2.7,16,0.00,,---,0.00,VWS V14.00,2013-06-11 11:03:00,
2013-06-11 04:08:00,74.7,25.5,25.31,SW,230,0.0,2.2,16,0.00,,---,0.00,VWS V14.00,2013-06-11 11:08:00,
2013-06-11 04:14:00,73.0,24.2,25.31,ESE,104,0.0,0.0,16,0.00,,---,0.00,VWS V14.00,2013-06-11 11:14:00,
2013-06-11 04:19:00,71.6,23.1,25.31,WSW,237,2.2,2.7,16,0.00,,---,0.00,VWS V14.00,2013-06-11 11:19:00,
2013-06-11 04:24:00,71.6,23.1,25.31,WSW,237,0.0,0.0,16,0.00,,---,0.00,VWS V14.00,2013-06-11 11:24:00,
2013-06-11 04:29:00,71.4,24.4,25.31,WSW,237,0.0,0.0,17,0.00,,---,0.00,VWS V14.00,2013-06-11 11:29:00,
2013-06-11 04:34:00,70.9,23.9,25.31,WSW,237,0.0,0.0,17,0.00,,---,0.00,VWS V14.00,2013-06-11 11:34:00,
2013-06-11 04:39:00,70.3,23.5,25.31,WSW,237,0.0,0.0,17,0.00,,---,0.00,VWS V14.00,2013-06-11 11:39:00,
2013-06-11 04:44:00,69.4,22.8,25.34,WSW,237,0.0,0.0,17,0.00,,---,0.00,VWS V14.00,2013-06-11 11:44:00,
2013-06-11 04:49:00,68.2,21.7,25.34,WSW,237,0.0,0.0,17,0.00,,---,0.00,VWS V14.00,2013-06-11 11:49:00,
2013-06-11 04:54:00,66.9,20.7,25.34,WSW,237,0.0,0.0,17,0.00,,---,0.00,VWS V14.00,2013-06-11 11:54:00,
2013-06-11 04:59:00,66.4,20.3,25.34,WSW,237,4.0,4.0,17,0.00,,---,0.00,VWS V14.00,2013-06-11 11:59:00,
2013-06-11 05:04:00,66.2,20.1,25.34,WSW,245,4.0,4.0,17,0.00,,---,0.00,VWS V14.00,2013-06-11 12:04:00,
2013-06-11 05:09:00,66.2,20.1,25.34,WSW,245,4.0,4.0,17,0.00,,---,0.00,VWS V14.00,2013-06-11 12:09:00,
2013-06-11 05:14:00,66.2,20.1,25.34,WSW,245,4.0,4.0,17,0.00,,---,0.00,VWS V14.00,2013-06-11 12:14:00,
2013-06-11 05:19:00,65.8,21.2,25.34,WSW,245,4.0,4.9,18,0.00,,---,0.00,VWS V14.00,2013-06-11 12:19:00,
2013-06-11 05:24:00,66.0,21.3,25.34,WSW,245,4.0,4.9,18,0.00,,---,0.00,VWS V14.00,2013-06-11 12:24:00,
2013-06-11 05:29:00,66.2,20.1,25.34,WSW,245,3.6,3.6,17,0.00,,---,0.00,VWS V14.00,2013-06-11 12:29:00,
2013-06-11 05:34:00,66.0,21.3,25.34,WSW,245,3.6,3.6,18,0.00,,---,0.00,VWS V14.00,2013-06-11 12:34:00,
2013-06-11 05:39:00,65.8,21.2,25.34,WSW,245,4.0,4.0,18,0.00,,---,0.00,VWS V14.00,2013-06-11 12:39:00,
2013-06-11 05:44:00,66.6,20.4,25.34,WSW,245,4.0,4.0,17,0.00,,---,0.00,VWS V14.00,2013-06-11 12:44:00,
2013-06-11 05:49:00,67.8,21.5,25.34,WSW,245,3.1,3.1,17,0.00,,---,0.00,VWS V14.00,2013-06-11 12:49:00,
2013-06-11 05:54:00,69.1,22.5,25.34,WSW,245,2.7,3.1,17,0.00,,---,0.00,VWS V14.00,2013-06-11 12:54:00,
2013-06-11 05:59:00,70.3,23.5,25.34,WSW,245,2.7,2.7,17,0.00,,---,0.00,VWS V14.00,2013-06-11 12:59:00,
2013-06-11 06:04:00,71.6,23.1,25.34,WSW,245,0.0,0.0,16,0.00,,---,0.00,VWS V14.00,2013-06-11 13:04:00,
2013-06-11 06:09:00,72.7,23.9,25.34,WSW,245,0.0,0.0,16,0.00,,---,0.00,VWS V14.00,2013-06-11 13:09:00,
2013-06-11 06:14:00,73.9,25.0,25.34,WSW,245,0.0,0.0,16,0.00,,---,0.00,VWS V14.00,2013-06-11 13:14:00,
2013-06-11 06:19:00,75.6,24.7,25.34,WSW,245,0.0,0.0,15,0.00,,---,0.00,VWS V14.00,2013-06-11 13:19:00,
2013-06-11 06:24:00,77.4,26.1,25.34,WSW,245,0.0,0.0,15,0.00,,---,0.00,VWS V14.00,2013-06-11 13:24:00,
2013-06-11 06:29:00,78.8,27.3,25.34,WSW,245,0.0,0.0,15,0.00,,---,0.00,VWS V14.00,2013-06-11 13:29:00,
2013-06-11 06:34:00,79.9,28.1,25.34,WSW,245,0.0,0.0,15,0.00,,---,0.00,VWS V14.00,2013-06-11 13:34:00,
2013-06-11 06:39:00,80.6,27.0,25.34,WSW,245,0.0,0.0,14,0.00,,---,0.00,VWS V14.00,2013-06-11 13:39:00,
2013-06-11 06:44:00,81.1,27.5,25.34,WSW,245,0.0,0.0,14,0.00,,---,0.00,VWS V14.00,2013-06-11 13:44:00,
2013-06-11 06:50:00,81.9,28.0,25.34,WSW,245,0.0,0.0,14,0.00,,---,0.00,VWS V14.00,2013-06-11 13:50:00,
2013-06-11 06:55:00,82.2,28.3,25.34,WSW,245,0.0,0.0,14,0.00,,---,0.00,VWS V14.00,2013-06-11 13:55:00,
2013-06-11 07:00:00,82.6,28.6,25.34,WSW,245,0.0,0.0,14,0.00,,---,0.00,VWS V14.00,2013-06-11 14:00:00,
2013-06-11 07:05:00,82.6,28.6,25.34,ESE,112,3.1,5.8,14,0.00,,---,0.00,VWS V14.00,2013-06-11 14:05:00,
2013-06-11 07:10:00,81.9,28.0,25.34,East,88,0.0,3.6,14,0.00,,---,0.00,VWS V14.00,2013-06-11 14:10:00,
2013-06-11 07:15:00,81.3,27.6,25.34,ESE,116,0.0,0.0,14,0.00,,---,0.00,VWS V14.00,2013-06-11 14:15:00,
2013-06-11 07:20:00,81.3,27.6,25.34,ESE,115,0.0,0.0,14,0.00,,---,0.00,VWS V14.00,2013-06-11 14:20:00,
2013-06-11 07:25:00,81.7,27.9,25.34,ESE,115,0.0,0.0,14,0.00,,---,0.00,VWS V14.00,2013-06-11 14:25:00,
2013-06-11 07:30:00,82.6,28.6,25.34,East,94,0.0,0.0,14,0.00,,---,0.00,VWS V14.00,2013-06-11 14:30:00,
2013-06-11 07:35:00,83.5,29.3,25.34,NE,41,0.0,0.0,14,0.00,,---,0.00,VWS V14.00,2013-06-11 14:35:00,
2013-06-11 07:40:00,84.0,29.8,25.34,NE,42,0.0,0.0,14,0.00,,---,0.00,VWS V14.00,2013-06-11 14:40:00,
2013-06-11 07:45:00,84.4,28.2,25.34,NE,42,0.0,0.0,13,0.00,,---,0.00,VWS V14.00,2013-06-11 14:45:00,
2013-06-11 07:50:00,84.9,28.6,25.34,NNE,23,0.0,0.0,13,0.00,,---,0.00,VWS V14.00,2013-06-11 14:50:00,
2013-06-11 07:55:00,85.3,28.9,25.34,NNE,29,3.6,3.6,13,0.00,,---,0.00,VWS V14.00,2013-06-11 14:55:00,
2013-06-11 08:00:00,85.6,29.2,25.34,NNE,29,0.0,0.0,13,0.00,,---,0.00,VWS V14.00,2013-06-11 15:00:00,
2013-06-11 08:05:00,86.2,29.6,25.34,NNE,15,0.0,0.0,13,0.00,,---,0.00,VWS V14.00,2013-06-11 15:05:00,
2013-06-11 08:10:00,86.5,29.9,25.34,North,357,0.0,0.0,13,0.00,,---,0.00,VWS V14.00,2013-06-11 15:10:00,
2013-06-11 08:15:00,86.9,30.2,25.34,NNE,32,3.6,3.6,13,0.00,,---,0.00,VWS V14.00,2013-06-11 15:15:00,
2013-06-11 08:20:00,87.4,30.6,25.34,NNE,22,3.6,3.6,13,0.00,,---,0.00,VWS V14.00,2013-06-11 15:20:00,
2013-06-11 08:25:00,87.8,30.9,25.34,NE,49,3.1,4.0,13,0.00,,---,0.00,VWS V14.00,2013-06-11 15:25:00,
2013-06-11 08:30:00,87.8,30.9,25.34,NNE,27,0.0,0.0,13,0.00,,---,0.00,VWS V14.00,2013-06-11 15:30:00,
2013-06-11 08:35:00,88.3,31.3,25.34,North,9,0.0,0.0,13,0.00,,---,0.00,VWS V14.00,2013-06-11 15:35:00,
2013-06-11 08:40:00,88.3,31.3,25.34,ENE,75,2.2,4.0,13,0.00,,---,0.00,VWS V14.00,2013-06-11 15:40:00,
2013-06-11 08:46:00,88.2,31.2,25.34,North,353,2.7,5.4,13,0.00,,---,0.00,VWS V14.00,2013-06-11 15:46:00,
2013-06-11 08:51:00,88.7,31.6,25.34,NE,37,5.4,6.3,13,0.00,,---,0.00,VWS V14.00,2013-06-11 15:51:00,
2013-06-11 08:56:00,89.4,32.2,25.34,NNE,13,6.3,7.6,13,0.00,,---,0.00,VWS V14.00,2013-06-11 15:56:00,
2013-06-11 09:01:00,90.0,30.6,25.34,NNW,335,8.3,8.3,12,0.00,,---,0.00,VWS V14.00,2013-06-11 16:01:00,
2013-06-11 09:06:00,90.3,30.9,25.34,North,6,3.6,4.0,12,0.00,,---,0.00,VWS V14.00,2013-06-11 16:06:00,
2013-06-11 09:11:00,90.9,31.3,25.34,North,11,3.6,5.8,12,0.00,,---,0.00,VWS V14.00,2013-06-11 16:11:00,
2013-06-11 09:16:00,91.6,31.9,25.34,NE,36,5.4,6.3,12,0.00,,---,0.00,VWS V14.00,2013-06-11 16:16:00,
2013-06-11 09:21:00,92.5,32.5,25.34,NNE,23,4.9,4.9,12,0.00,,---,0.00,VWS V14.00,2013-06-11 16:21:00,
2013-06-11 09:26:00,92.8,32.8,25.34,NNE,23,5.8,8.3,12,0.00,,---,0.00,VWS V14.00,2013-06-11 16:26:00,
2013-06-11 09:31:00,93.2,31.0,25.34,NNW,337,5.8,5.8,11,0.00,,---,0.00,VWS V14.00,2013-06-11 16:31:00,
2013-06-11 09:36:00,93.0,33.0,25.34,NE,52,8.3,8.3,12,0.00,,---,0.00,VWS V14.00,2013-06-11 16:36:00,
2013-06-11 09:41:00,93.2,31.0,25.34,NE,45,5.4,5.8,11,0.00,,---,0.00,VWS V14.00,2013-06-11 16:41:00,
2013-06-11 09:46:00,93.6,31.2,25.34,North,357,5.8,8.3,11,0.00,,---,0.00,VWS V14.00,2013-06-11 16:46:00,
2013-06-11 09:51:00,94.1,31.6,25.34,North,11,2.2,2.2,11,0.00,,---,0.00,VWS V14.00,2013-06-11 16:51:00,
2013-06-11 09:56:00,94.5,31.9,25.34,NNE,12,2.2,2.2,11,0.00,,---,0.00,VWS V14.00,2013-06-11 16:56:00,
2013-06-11 10:01:00,95.0,32.3,25.34,NNE,32,5.8,5.8,11,0.00,,---,0.00,VWS V14.00,2013-06-11 17:01:00,
2013-06-11 10:07:00,95.5,32.7,25.34,North,8,7.6,8.1,11,0.00,,---,0.00,VWS V14.00,2013-06-11 17:07:00,
2013-06-11 10:12:00,96.1,33.2,25.34,NE,45,7.6,7.6,11,0.00,,---,0.00,VWS V14.00,2013-06-11 17:12:00,
2013-06-11 10:17:00,96.3,33.3,25.34,NNW,337,5.4,5.8,11,0.00,,---,0.00,VWS V14.00,2013-06-11 17:17:00,
2013-06-11 10:22:00,96.3,33.3,25.34,NNE,18,5.8,8.1,11,0.00,,---,0.00,VWS V14.00,2013-06-11 17:22:00,
2013-06-11 10:27:00,96.4,33.4,25.34,NNE,26,7.2,8.7,11,0.00,,---,0.00,VWS V14.00,2013-06-11 17:27:00,
2013-06-11 10:33:00,97.0,33.8,25.34,NNE,20,4.0,6.7,11,0.00,,---,0.00,VWS V14.00,2013-06-11 17:33:00,
2013-06-11 10:38:00,97.9,34.5,25.34,ENE,61,0.0,8.7,11,0.00,,---,0.00,VWS V14.00,2013-06-11 17:38:00,
2013-06-11 10:43:00,98.1,34.7,25.34,NNW,344,8.1,13.2,11,0.00,,---,0.00,VWS V14.00,2013-06-11 17:43:00,
2013-06-11 10:48:00,98.2,34.8,25.34,North,353,4.0,6.7,11,0.00,,---,0.00,VWS V14.00,2013-06-11 17:48:00,
2013-06-11 10:53:00,98.4,34.9,25.34,NE,45,16.8,16.8,11,0.00,,---,0.00,VWS V14.00,2013-06-11 17:53:00,
2013-06-11 10:58:00,98.6,32.7,25.34,NNW,334,10.5,11.0,10,0.00,,---,0.00,VWS V14.00,2013-06-11 17:58:00,
2013-06-11 11:03:00,97.9,34.5,25.34,West,272,0.0,0.0,11,0.00,,---,0.00,VWS V14.00,2013-06-11 18:03:00,
2013-06-11 11:08:00,98.2,34.8,25.34,NNW,328,5.4,6.3,11,0.00,,---,0.00,VWS V14.00,2013-06-11 18:08:00,
2013-06-11 11:13:00,98.4,34.9,25.34,South,169,3.6,6.3,11,0.00,,---,0.00,VWS V14.00,2013-06-11 18:13:00,
2013-06-11 11:18:00,98.6,32.7,25.34,NW,315,5.8,10.5,10,0.00,,---,0.00,VWS V14.00,2013-06-11 18:18:00,
2013-06-11 11:23:00,99.0,33.0,25.34,West,269,10.5,10.5,10,0.00,,---,0.00,VWS V14.00,2013-06-11 18:23:00,
2013-06-11 11:28:00,99.1,33.1,25.34,West,265,11.0,11.0,10,0.00,,---,0.00,VWS V14.00,2013-06-11 18:28:00,
2013-06-11 11:33:00,99.1,33.1,25.34,WNW,288,2.7,8.1,10,0.00,,---,0.00,VWS V14.00,2013-06-11 18:33:00,
2013-06-11 11:38:00,99.1,33.1,25.34,SSW,212,3.6,5.8,10,0.00,,---,0.00,VWS V14.00,2013-06-11 18:38:00,
2013-06-11 11:43:00,99.3,33.2,25.34,West,265,12.3,12.3,10,0.00,,---,0.00,VWS V14.00,2013-06-11 18:43:00,
2013-06-11 11:48:00,99.5,33.4,25.34,WSW,250,0.0,0.0,10,0.00,,---,0.00,VWS V14.00,2013-06-11 18:48:00,
2013-06-11 11:53:00,99.9,33.6,25.34,WSW,251,7.6,8.7,10,0.00,,---,0.00,VWS V14.00,2013-06-11 18:53:00,
2013-06-11 11:58:00,99.7,33.5,25.34,West,264,15.9,15.9,10,0.00,,---,0.00,VWS V14.00,2013-06-11 18:58:00,
2013-06-11 12:03:00,99.9,33.6,25.34,WSW,258,4.9,8.3,10,0.00,,---,0.00,VWS V14.00,2013-06-11 19:03:00,
2013-06-11 12:08:00,100.0,33.8,25.34,SW,235,12.3,12.3,10,0.00,,---,0.00,VWS V14.00,2013-06-11 19:08:00,
2013-06-11 12:13:00,99.9,33.6,25.31,NNW,339,0.0,4.9,10,0.00,,---,0.00,VWS V14.00,2013-06-11 19:13:00,
2013-06-11 12:18:00,100.4,34.0,25.31,West,269,7.6,8.3,10,0.00,,---,0.00,VWS V14.00,2013-06-11 19:18:00,
2013-06-11 12:23:00,100.6,34.2,25.31,WNW,291,9.6,13.2,10,0.00,,---,0.00,VWS V14.00,2013-06-11 19:23:00,
2013-06-11 12:28:00,100.4,34.0,25.31,West,271,10.5,10.5,10,0.00,,---,0.00,VWS V14.00,2013-06-11 19:28:00,
2013-06-11 12:33:00,100.0,33.8,25.31,West,264,12.8,12.8,10,0.00,,---,0.00,VWS V14.00,2013-06-11 19:33:00,
2013-06-11 12:39:00,100.0,33.8,25.31,West,262,4.9,12.3,10,0.00,,---,0.00,VWS V14.00,2013-06-11 19:39:00,
2013-06-11 12:44:00,99.9,33.6,25.31,NW,321,12.3,12.3,10,0.00,,---,0.00,VWS V14.00,2013-06-11 19:44:00,
2013-06-11 12:49:00,100.0,33.8,25.31,WNW,290,4.0,5.4,10,0.00,,---,0.00,VWS V14.00,2013-06-11 19:49:00,
2013-06-11 12:54:00,100.0,33.8,25.31,NNW,330,0.0,0.0,10,0.00,,---,0.00,VWS V14.00,2013-06-11 19:54:00,
2013-06-11 12:59:00,100.0,33.8,25.31,NW,309,0.0,5.8,10,0.00,,---,0.00,VWS V14.00,2013-06-11 19:59:00,
2013-06-11 13:04:00,100.4,34.0,25.31,WNW,298,10.5,13.2,10,0.00,,---,0.00,VWS V14.00,2013-06-11 20:04:00,
2013-06-11 13:09:00,100.0,33.8,25.31,SW,218,5.4,8.1,10,0.00,,---,0.00,VWS V14.00,2013-06-11 20:09:00,
2013-06-11 13:14:00,100.4,34.0,25.31,West,267,12.8,14.5,10,0.00,,---,0.00,VWS V14.00,2013-06-11 20:14:00,
2013-06-11 13:19:00,100.6,34.2,25.31,WSW,247,2.7,5.8,10,0.00,,---,0.00,VWS V14.00,2013-06-11 20:19:00,
2013-06-11 13:24:00,100.8,34.3,25.31,South,178,0.0,0.0,10,0.00,,---,0.00,VWS V14.00,2013-06-11 20:24:00,
2013-06-11 13:29:00,100.6,34.2,25.31,WNW,293,12.3,12.3,10,0.00,,---,0.00,VWS V14.00,2013-06-11 20:29:00,
2013-06-11 13:34:00,100.8,34.3,25.31,NNW,328,5.4,10.5,10,0.00,,---,0.00,VWS V14.00,2013-06-11 20:34:00,
2013-06-11 13:39:00,100.6,34.2,25.31,NW,316,8.1,8.3,10,0.00,,---,0.00,VWS V14.00,2013-06-11 20:39:00,
2013-06-11 13:44:00,100.2,33.9,25.31,NNW,327,10.1,10.5,10,0.00,,---,0.00,VWS V14.00,2013-06-11 20:44:00,
2013-06-11 13:49:00,100.9,34.5,25.31,South,176,3.1,4.9,10,0.00,,---,0.00,VWS V14.00,2013-06-11 20:49:00,
2013-06-11 13:54:00,101.7,35.0,25.31,NW,312,11.0,13.2,10,0.00,,---,0.00,VWS V14.00,2013-06-11 20:54:00,
2013-06-11 14:00:00,101.5,34.9,25.31,West,264,7.6,10.5,10,0.00,,---,0.00,VWS V14.00,2013-06-11 21:00:00,
2013-06-11 14:05:00,101.5,34.9,25.31,WNW,294,7.6,9.6,10,0.00,,---,0.00,VWS V14.00,2013-06-11 21:05:00,
2013-06-11 14:10:00,101.1,34.6,25.31,NNW,336,8.7,12.8,10,0.00,,---,0.00,VWS V14.00,2013-06-11 21:10:00,
2013-06-11 14:15:00,100.8,34.3,25.28,WNW,283,5.4,5.4,10,0.00,,---,0.00,VWS V14.00,2013-06-11 21:15:00,
2013-06-11 14:20:00,100.8,34.3,25.28,SSW,209,5.8,6.3,10,0.00,,---,0.00,VWS V14.00,2013-06-11 21:20:00,
2013-06-11 14:25:00,100.8,34.3,25.28,SW,222,5.8,7.6,10,0.00,,---,0.00,VWS V14.00,2013-06-11 21:25:00,
2013-06-11 14:30:00,101.1,34.6,25.28,SW,227,5.4,8.7,10,0.00,,---,0.00,VWS V14.00,2013-06-11 21:30:00,
2013-06-11 14:35:00,101.5,34.9,25.28,WNW,295,0.0,8.3,10,0.00,,---,0.00,VWS V14.00,2013-06-11 21:35:00,
2013-06-11 14:40:00,101.7,35.0,25.28,WNW,298,3.6,3.6,10,0.00,,---,0.00,VWS V14.00,2013-06-11 21:40:00,
2013-06-11 14:45:00,101.8,35.1,25.28,NNW,338,10.1,10.5,10,0.00,,---,0.00,VWS V14.00,2013-06-11 21:45:00,
2013-06-11 14:50:00,101.8,35.1,25.28,NNW,338,8.3,8.3,10,0.00,,---,0.00,VWS V14.00,2013-06-11 21:50:00,
2013-06-11 14:55:00,101.1,34.6,25.28,NW,314,11.0,11.0,10,0.00,,---,0.00,VWS V14.00,2013-06-11 21:55:00,
2013-06-11 15:00:00,100.6,34.2,25.28,WSW,250,0.0,2.7,10,0.00,,---,0.00,VWS V14.00,2013-06-11 22:00:00,
2013-06-11 15:05:00,100.8,34.3,25.28,WSW,241,17.0,17.0,10,0.00,,---,0.00,VWS V14.00,2013-06-11 22:05:00,
2013-06-11 15:10:00,101.3,34.7,25.28,SW,236,8.3,8.3,10,0.00,,---,0.00,VWS V14.00,2013-06-11 22:10:00,
2013-06-11 15:15:00,101.1,34.6,25.28,WSW,250,5.4,8.7,10,0.00,,---,0.00,VWS V14.00,2013-06-11 22:15:00,
2013-06-11 15:20:00,101.1,34.6,25.28,SW,221,0.0,0.0,10,0.00,,---,0.00,VWS V14.00,2013-06-11 22:20:00,
2013-06-11 15:25:00,101.5,34.9,25.28,WNW,290,5.8,5.8,10,0.00,,---,0.00,VWS V14.00,2013-06-11 22:25:00,
2013-06-11 15:30:00,100.9,34.5,25.28,SW,218,0.0,4.9,10,0.00,,---,0.00,VWS V14.00,2013-06-11 22:30:00,
2013-06-11 15:35:00,100.9,34.5,25.28,NNW,339,8.3,12.8,10,0.00,,---,0.00,VWS V14.00,2013-06-11 22:35:00,
2013-06-11 15:40:00,100.9,34.5,25.28,NNW,346,8.7,8.7,10,0.00,,---,0.00,VWS V14.00,2013-06-11 22:40:00,
2013-06-11 15:45:00,101.1,34.6,25.25,NW,305,11.4,14.1,10,0.00,,---,0.00,VWS V14.00,2013-06-11 22:45:00,
2013-06-11 15:50:00,100.8,34.3,25.25,West,271,5.8,13.2,10,0.00,,---,0.00,VWS V14.00,2013-06-11 22:50:00,
2013-06-11 15:55:00,100.6,34.2,25.25,NW,313,2.7,3.1,10,0.00,,---,0.00,VWS V14.00,2013-06-11 22:55:00,
2013-06-11 16:00:00,100.6,34.2,25.25,NNW,338,13.2,17.0,10,0.00,,---,0.00,VWS V14.00,2013-06-11 23:00:00,
2013-06-11 16:05:00,101.1,34.6,25.25,WNW,301,8.3,13.2,10,0.00,,---,0.00,VWS V14.00,2013-06-11 23:05:00,
2013-06-11 16:10:00,101.1,34.6,25.25,SW,227,5.4,10.1,10,0.00,,---,0.00,VWS V14.00,2013-06-11 23:10:00,
2013-06-11 16:15:00,100.4,34.0,25.25,WNW,297,6.3,8.7,10,0.00,,---,0.00,VWS V14.00,2013-06-11 23:15:00,
2013-06-11 16:20:00,100.0,33.8,25.25,NW,323,12.3,13.2,10,0.00,,---,0.00,VWS V14.00,2013-06-11 23:20:00,
2013-06-11 16:25:00,100.6,34.2,25.25,NNW,328,11.9,12.8,10,0.00,,---,0.00,VWS V14.00,2013-06-11 23:25:00,
2013-06-11 16:30:00,100.8,34.3,25.25,NW,326,12.8,17.0,10,0.00,,---,0.00,VWS V14.00,2013-06-11 23:30:00,
2013-06-11 16:35:00,100.2,33.9,25.25,NW,317,7.6,10.5,10,0.00,,---,0.00,VWS V14.00,2013-06-11 23:35:00,
2013-06-11 16:41:00,99.9,33.6,25.25,NNW,332,9.6,9.6,10,0.00,,---,0.00,VWS V14.00,2013-06-11 23:41:00,
2013-06-11 16:46:00,99.9,33.6,25.25,NW,314,12.8,12.8,10,0.00,,---,0.00,VWS V14.00,2013-06-11 23:46:00,
2013-06-11 16:51:00,99.9,33.6,25.25,NNW,337,8.7,8.7,10,0.00,,---,0.00,VWS V14.00,2013-06-11 23:51:00,
2013-06-11 16:56:00,99.7,33.5,25.25,NNW,327,10.5,13.2,10,0.00,,---,0.00,VWS V14.00,2013-06-11 23:56:00,
2013-06-11 17:01:00,99.5,33.4,25.25,NW,326,12.8,12.8,10,0.00,,---,0.00,VWS V14.00,2013-06-12 00:01:00,
2013-06-11 17:06:00,99.3,33.2,25.25,NNW,327,7.6,10.1,10,0.00,,---,0.00,VWS V14.00,2013-06-12 00:06:00,
2013-06-11 17:11:00,99.3,33.2,25.25,WSW,257,11.9,11.9,10,0.00,,---,0.00,VWS V14.00,2013-06-12 00:11:00,
2013-06-11 17:16:00,99.5,33.4,25.25,NW,305,12.3,15.0,10,0.00,,---,0.00,VWS V14.00,2013-06-12 00:16:00,
2013-06-11 17:21:00,99.3,33.2,25.25,WNW,302,8.7,11.0,10,0.00,,---,0.00,VWS V14.00,2013-06-12 00:21:00,
2013-06-11 17:26:00,99.0,33.0,25.25,WNW,295,15.0,15.9,10,0.00,,---,0.00,VWS V14.00,2013-06-12 00:26:00,
2013-06-11 17:31:00,98.6,32.7,25.25,North,5,8.3,8.7,10,0.00,,---,0.00,VWS V14.00,2013-06-12 00:31:00,
2013-06-11 17:36:00,98.8,32.8,25.25,NNW,327,12.3,12.3,10,0.00,,---,0.00,VWS V14.00,2013-06-12 00:36:00,
2013-06-11 17:41:00,98.6,32.7,25.25,NNW,335,11.9,15.0,10,0.00,,---,0.00,VWS V14.00,2013-06-12 00:41:00,
2013-06-11 17:46:00,98.2,34.8,25.25,West,265,9.2,9.2,11,0.00,,---,0.00,VWS V14.00,2013-06-12 00:46:00,
2013-06-11 17:51:00,97.9,34.5,25.25,WNW,303,8.3,8.3,11,0.00,,---,0.00,VWS V14.00,2013-06-12 00:51:00,
2013-06-11 17:56:00,97.9,34.5,25.25,NW,315,11.0,11.9,11,0.00,,---,0.00,VWS V14.00,2013-06-12 00:56:00,
2013-06-11 18:01:00,97.7,34.4,25.25,NNW,331,8.7,8.7,11,0.00,,---,0.00,VWS V14.00,2013-06-12 01:01:00,
2013-06-11 18:06:00,97.3,34.1,25.25,NW,320,13.2,13.2,11,0.00,,---,0.00,VWS V14.00,2013-06-12 01:06:00,
2013-06-11 18:11:00,97.0,33.8,25.25,NW,319,14.5,14.5,11,0.00,,---,0.00,VWS V14.00,2013-06-12 01:11:00,
2013-06-11 18:16:00,96.6,33.6,25.25,NNW,337,10.1,11.0,11,0.00,,---,0.00,VWS V14.00,2013-06-12 01:16:00,
2013-06-11 18:21:00,96.3,33.3,25.25,NNW,340,13.2,15.4,11,0.00,,---,0.00,VWS V14.00,2013-06-12 01:21:00,
2013-06-11 18:26:00,95.9,33.0,25.25,NNW,333,10.1,10.1,11,0.00,,---,0.00,VWS V14.00,2013-06-12 01:26:00,
2013-06-11 18:32:00,95.5,32.7,25.25,NNW,329,8.7,10.5,11,0.00,,---,0.00,VWS V14.00,2013-06-12 01:32:00,
2013-06-11 18:37:00,95.0,32.3,25.25,NW,307,13.2,13.2,11,0.00,,---,0.00,VWS V14.00,2013-06-12 01:37:00,
2013-06-11 18:42:00,94.6,32.0,25.25,WNW,302,13.2,15.4,11,0.00,,---,0.00,VWS V14.00,2013-06-12 01:42:00,
2013-06-11 18:47:00,93.9,31.5,25.25,WNW,291,13.6,13.6,11,0.00,,---,0.00,VWS V14.00,2013-06-12 01:47:00,
2013-06-11 18:52:00,93.6,31.2,25.25,NW,320,10.1,13.2,11,0.00,,---,0.00,VWS V14.00,2013-06-12 01:52:00,
2013-06-11 18:58:00,92.8,32.8,25.25,NW,306,11.9,14.5,12,0.00,,---,0.00,VWS V14.00,2013-06-12 01:58:00,
2013-06-11 19:03:00,92.3,32.4,25.25,WNW,303,12.8,12.8,12,0.00,,---,0.00,VWS V14.00,2013-06-12 02:03:00,
2013-06-11 19:08:00,91.8,32.0,25.25,WNW,298,8.1,10.1,12,0.00,,---,0.00,VWS V14.00,2013-06-12 02:08:00,
2013-06-11 19:13:00,91.4,31.7,25.25,NW,314,13.2,13.2,12,0.00,,---,0.00,VWS V14.00,2013-06-12 02:13:00,
2013-06-11 19:18:00,91.0,31.4,25.25,NW,310,10.5,10.5,12,0.00,,---,0.00,VWS V14.00,2013-06-12 02:18:00,
2013-06-11 19:23:00,90.7,31.2,25.25,WNW,299,8.7,12.8,12,0.00,,---,0.00,VWS V14.00,2013-06-12 02:23:00,
2013-06-11 19:28:00,90.3,30.9,25.28,NW,312,7.6,7.6,12,0.00,,---,0.00,VWS V14.00,2013-06-12 02:28:00,
2013-06-11 19:33:00,90.1,30.7,25.28,NW,310,8.3,10.5,12,0.00,,---,0.00,VWS V14.00,2013-06-12 02:33:00,
2013-06-11 19:38:00,89.6,30.3,25.28,NW,312,14.1,15.4,12,0.00,,---,0.00,VWS V14.00,2013-06-12 02:38:00,
2013-06-11 19:43:00,89.4,32.2,25.28,NW,307,15.4,15.4,13,0.00,,---,0.00,VWS V14.00,2013-06-12 02:43:00,
2013-06-11 19:48:00,89.2,32.0,25.28,NNW,341,12.8,12.8,13,0.00,,---,0.00,VWS V14.00,2013-06-12 02:48:00,
2013-06-11 19:53:00,89.2,32.0,25.28,WNW,302,15.4,15.4,13,0.00,,---,0.00,VWS V14.00,2013-06-12 02:53:00,
2013-06-11 19:58:00,89.1,31.9,25.28,WNW,292,17.4,17.4,13,0.00,,---,0.00,VWS V14.00,2013-06-12 02:58:00,
2013-06-11 20:03:00,88.9,31.7,25.28,NW,322,13.6,13.6,13,0.00,,---,0.00,VWS V14.00,2013-06-12 03:03:00,
2013-06-11 20:08:00,88.7,31.6,25.28,NW,313,17.4,17.4,13,0.00,,---,0.00,VWS V14.00,2013-06-12 03:08:00,
2013-06-11 20:13:00,88.3,31.3,25.28,NW,309,18.8,18.8,13,0.00,,---,0.00,VWS V14.00,2013-06-12 03:13:00,
2013-06-11 20:18:00,88.2,31.2,25.28,NNW,327,10.1,15.4,13,0.00,,---,0.00,VWS V14.00,2013-06-12 03:18:00,
2013-06-11 20:23:00,87.8,30.9,25.28,NW,321,13.2,13.2,13,0.00,,---,0.00,VWS V14.00,2013-06-12 03:23:00,
2013-06-11 20:28:00,87.4,30.6,25.31,NW,321,15.0,15.0,13,0.00,,---,0.00,VWS V14.00,2013-06-12 03:28:00,
2013-06-11 20:33:00,87.3,30.5,25.31,WNW,297,11.0,13.2,13,0.00,,---,0.00,VWS V14.00,2013-06-12 03:33:00,
2013-06-11 20:38:00,87.1,30.3,25.31,WNW,303,10.5,15.9,13,0.00,,---,0.00,VWS V14.00,2013-06-12 03:38:00,
2013-06-11 20:43:00,87.1,30.3,25.31,WNW,285,13.2,15.4,13,0.00,,---,0.00,VWS V14.00,2013-06-12 03:43:00,
2013-06-11 20:48:00,87.1,30.3,25.31,WNW,288,10.1,16.3,13,0.00,,---,0.00,VWS V14.00,2013-06-12 03:48:00,
2013-06-11 20:53:00,87.1,30.3,25.31,WNW,285,12.3,15.4,13,0.00,,---,0.00,VWS V14.00,2013-06-12 03:53:00,
2013-06-11 20:58:00,86.9,30.2,25.31,WNW,297,15.4,15.4,13,0.00,,---,0.00,VWS V14.00,2013-06-12 03:58:00,
2013-06-11 21:01:00,86.7,30.0,25.31,WNW,294,14.5,15.0,13,0.00,,---,0.00,VWS V14.00,2013-06-12 04:01:00,
2013-06-11 21:02:00,86.7,30.0,25.31,WSW,240,12.8,17.4,13,0.00,,---,0.00,VWS V14.00,2013-06-12 04:02:00,
2013-06-11 21:03:00,86.7,30.0,25.31,NNW,344,18.8,18.8,13,0.00,,---,0.00,VWS V14.00,2013-06-12 04:03:00,
2013-06-11 21:04:00,86.7,30.0,25.31,NW,321,19.7,19.7,13,0.00,,---,0.00,VWS V14.00,2013-06-12 04:04:00,
2013-06-11 21:09:00,86.5,29.9,25.31,NW,304,14.1,19.7,13,0.00,,---,0.00,VWS V14.00,2013-06-12 04:09:00,
2013-06-11 21:14:00,86.5,29.9,25.31,WNW,283,13.2,15.0,13,0.00,,---,0.00,VWS V14.00,2013-06-12 04:14:00,
2013-06-11 21:19:00,86.5,29.9,25.31,NW,312,15.4,15.4,13,0.00,,---,0.00,VWS V14.00,2013-06-12 04:19:00,
2013-06-11 21:24:00,86.4,29.8,25.31,NW,314,11.0,19.7,13,0.00,,---,0.00,VWS V14.00,2013-06-12 04:24:00,
2013-06-11 21:30:00,86.0,29.5,25.31,WNW,284,19.2,19.2,13,0.00,,---,0.00,VWS V14.00,2013-06-12 04:30:00,
2013-06-11 21:35:00,86.2,29.6,25.31,WNW,294,12.8,13.2,13,0.00,,---,0.00,VWS V14.00,2013-06-12 04:35:00,
2013-06-11 21:40:00,86.2,29.6,25.31,WNW,288,15.4,15.4,13,0.00,,---,0.00,VWS V14.00,2013-06-12 04:40:00,
2013-06-11 21:45:00,86.2,29.6,25.31,NW,312,10.1,11.0,13,0.00,,---,0.00,VWS V14.00,2013-06-12 04:45:00,
2013-06-11 21:50:00,85.8,29.4,25.31,NW,315,8.1,15.0,13,0.00,,---,0.00,VWS V14.00,2013-06-12 04:50:00,
2013-06-11 21:55:00,85.6,29.2,25.31,West,270,8.7,11.0,13,0.00,,---,0.00,VWS V14.00,2013-06-12 04:55:00,
2013-06-11 22:00:00,85.3,28.9,25.31,WNW,285,12.8,15.0,13,0.00,,---,0.00,VWS V14.00,2013-06-12 05:00:00,
2013-06-11 22:05:00,85.1,28.8,25.31,WNW,302,10.5,11.0,13,0.00,,---,0.00,VWS V14.00,2013-06-12 05:05:00,
2013-06-11 22:10:00,85.1,28.8,25.31,NW,311,10.5,13.2,13,0.00,,---,0.00,VWS V14.00,2013-06-12 05:10:00,
2013-06-11 22:15:00,85.3,28.9,25.31,NW,316,11.0,11.0,13,0.00,,---,0.00,VWS V14.00,2013-06-12 05:15:00,
2013-06-11 22:20:00,85.3,28.9,25.31,NW,314,15.0,17.9,13,0.00,,---,0.00,VWS V14.00,2013-06-12 05:20:00,
2013-06-11 22:25:00,85.3,28.9,25.31,WNW,297,10.5,10.5,13,0.00,,---,0.00,VWS V14.00,2013-06-12 05:25:00,
2013-06-11 22:30:00,85.3,28.9,25.31,WNW,295,15.0,15.0,13,0.00,,---,0.00,VWS V14.00,2013-06-12 05:30:00,
2013-06-11 22:35:00,85.6,29.2,25.31,WNW,294,13.2,15.9,13,0.00,,---,0.00,VWS V14.00,2013-06-12 05:35:00,
2013-06-11 22:40:00,85.6,29.2,25.31,WNW,286,12.8,14.5,13,0.00,,---,0.00,VWS V14.00,2013-06-12 05:40:00,
2013-06-11 22:45:00,85.5,29.1,25.31,NW,304,10.5,14.5,13,0.00,,---,0.00,VWS V14.00,2013-06-12 05:45:00,
2013-06-11 22:50:00,85.5,29.1,25.31,NW,308,12.3,12.3,13,0.00,,---,0.00,VWS V14.00,2013-06-12 05:50:00,
2013-06-11 22:55:00,85.5,29.1,25.31,WNW,288,15.4,15.4,13,0.00,,---,0.00,VWS V14.00,2013-06-12 05:55:00,
2013-06-11 23:00:00,85.6,29.2,25.34,NW,310,12.3,15.0,13,0.00,,---,0.00,VWS V14.00,2013-06-12 06:00:00,
2013-06-11 23:05:00,85.6,29.2,25.34,NW,319,13.2,13.2,13,0.00,,---,0.00,VWS V14.00,2013-06-12 06:05:00,
2013-06-11 23:10:00,86.0,29.5,25.34,WNW,294,15.4,15.4,13,0.00,,---,0.00,VWS V14.00,2013-06-12 06:10:00,
2013-06-11 23:15:00,85.8,29.4,25.31,NW,317,10.1,11.0,13,0.00,,---,0.00,VWS V14.00,2013-06-12 06:15:00,
2013-06-11 23:20:00,85.6,29.2,25.31,WNW,295,8.3,8.7,13,0.00,,---,0.00,VWS V14.00,2013-06-12 06:20:00,
2013-06-11 23:25:00,85.3,28.9,25.31,NW,306,12.8,12.8,13,0.00,,---,0.00,VWS V14.00,2013-06-12 06:25:00,
2013-06-11 23:30:00,85.1,28.8,25.34,NW,309,8.3,13.2,13,0.00,,---,0.00,VWS V14.00,2013-06-12 06:30:00,
2013-06-11 23:35:00,85.1,28.8,25.34,NW,310,12.3,12.3,13,0.00,,---,0.00,VWS V14.00,2013-06-12 06:35:00,
2013-06-11 23:40:00,84.9,28.6,25.34,NW,322,11.0,12.8,13,0.00,,---,0.00,VWS V14.00,2013-06-12 06:40:00,
2013-06-11 23:45:00,84.7,28.5,25.31,NNW,329,8.7,9.6,13,0.00,,---,0.00,VWS V14.00,2013-06-12 06:45:00,
2013-06-11 23:50:00,84.2,28.1,25.31,NNW,343,8.7,8.7,13,0.00,,---,0.00,VWS V14.00,2013-06-12 06:50:00,
2013-06-11 23:56:00,83.7,29.5,25.31,NW,304,8.3,10.5,14,0.00,,---,0.00,VWS V14.00,2013-06-12 06:56:00,